#timestamp,LO_Frequency,Hit,StdDev 
1531249215.8,286046990.2,N
1531249235.6,286046992.4,N
1531249255.5,286046992.9,N
1531249275.3,286046990.9,N
1531249295.1,286046988.6,N
1531249315.9,286046989.4,N
1531249335.7,286046987.1,N
1531249355.6,286046987.7,N
1531249375.4,286046988.4,N
1531249395.2,286046986.2,N
1531249415.1,286046985.6,N
1531249416.0,286046985.6,N
1531249435.8,286046984.0,N
1531249455.6,286046984.1,N
1531249475.5,286046983.8,N
1531249495.3,286046984.7,N
1531249515.2,286046985.1,N
1531249535.9,286046980.7,Y
1531249555.7,286046989.0,P
1531249575.6,286046989.4,P
1531249595.4,286046989.9,P
1531249615.3,286046989.8,Y
1531249635.1,286046999.2,P
1531249636.0,286046999.2,N
1531249655.8,286046997.0,N
1531249675.7,286046999.2,N
1531249695.5,286046999.6,N
1531249715.3,286046997.6,N
1531249735.2,286046996.0,N
1531249755.0,286046996.4,N
1531249755.9,286046996.4,N
1531249775.8,286046994.0,N
1531249795.6,286046992.4,N
1531249815.4,286046993.2,N
1531249835.3,286046992.4,N
1531249855.1,286046992.9,N
1531249875.8,286046992.6,N
1531249895.7,286046992.0,N
1531249915.5,286046991.8,N
1531249935.4,286046994.8,N
1531249955.2,286046992.8,N
1531249975.0,286046988.9,Y
1531249975.9,286046988.9,P
1531249995.8,286046992.4,N
1531250015.6,286046992.6,N
1531250035.5,286046990.8,Y
1531250055.3,286046999.1,P
1531250075.1,286046998.4,N
1531250095.9,286046999.1,N
1531250115.7,286046999.3,N
1531250135.5,286046997.6,N
1531250155.4,286046996.5,N
1531250175.2,286046996.6,N
1531250195.1,286046997.0,N
1531250196.0,286046997.0,N
1531250215.8,286046998.6,N
1531250235.6,286046998.1,N
1531250255.5,286047000.6,N
1531250275.3,286046998.2,N
1531250295.1,286046999.8,N
1531250315.9,286047002.7,N
1531250335.7,286047000.1,N
1531250355.6,286047001.3,N
1531250375.4,286047001.7,N
1531250395.2,286047001.9,N
1531250415.1,286047001.8,N
1531250416.0,286047001.8,N
1531250435.8,286047003.6,N
1531250455.7,286047005.2,N
1531250475.5,286047005.4,N
1531250495.3,286047005.0,N
1531250515.2,286047006.9,N
1531250535.9,286047007.5,N
1531250555.7,286047008.0,N
1531250575.6,286047007.8,N
1531250595.4,286047009.3,N
1531250615.3,286047011.6,Y
1531250635.1,286047012.0,P
1531250636.0,286047012.0,N
1531250655.8,286047011.3,N
1531250675.7,286047011.7,N
1531250695.5,286047009.4,N
1531250715.3,286047009.5,N
1531250735.2,286047011.8,Y
1531250755.0,286047000.4,P
1531250755.9,286047000.4,N
1531250775.8,286047001.2,N
1531250795.6,286046999.2,N
1531250815.4,286046996.8,N
1531250835.3,286046997.3,N
1531250855.1,286046997.9,N
1531250875.9,286046997.6,N
1531250895.7,286046997.2,N
1531250915.5,286046996.9,N
1531250935.4,286046996.7,N
1531250955.2,286046999.4,N
1531250975.0,286046998.1,N
1531250975.9,286046998.1,N
1531250995.8,286047000.2,N
1531251015.6,286047002.7,N
1531251035.5,286047001.7,N
1531251055.3,286047001.9,N
1531251075.1,286047001.3,N
1531251095.9,286047004.4,N
1531251115.7,286047004.2,N
1531251135.5,286047004.1,N
1531251155.4,286047005.7,N
1531251175.2,286047004.7,N
1531251195.1,286047004.7,N
1531251196.0,286047004.7,N
1531251215.8,286047005.1,N
1531251235.6,286047007.6,N
1531251255.5,286047004.9,N
1531251275.3,286047005.2,N
1531251295.1,286047003.4,N
1531251315.9,286047001.3,N
1531251335.7,286047001.8,N
1531251355.6,286047000.2,N
1531251375.4,286047000.2,N
1531251395.2,286047000.2,N
1531251415.1,286047000.4,N
1531251416.0,286047000.4,N
1531251435.8,286047000.0,N
1531251455.6,286046998.9,N
1531251475.5,286047002.5,N
1531251495.3,286047004.4,N
1531251515.2,286047004.3,N
1531251535.9,286047003.8,N
1531251555.7,286047006.0,N
1531251575.6,286047003.2,N
1531251595.4,286047007.5,Y
1531251615.3,286047005.5,P
1531251635.1,286047006.7,P
1531251636.0,286047006.7,P
1531251655.8,286047008.8,Y
1531251675.7,286047003.3,P
1531251695.5,286047005.2,P
1531251715.3,286047007.1,P
1531251735.2,286047007.0,Y
1531251755.0,286047003.2,P
1531251755.9,286047003.2,P
1531251775.8,286047005.5,P
1531251795.6,286047004.8,Y
1531251815.4,286047002.6,P
1531251835.3,286047001.8,N
1531251855.1,286047003.9,P
1531251875.9,286047005.3,Y
1531251895.7,286047000.6,P
1531251915.5,286047001.0,N
1531251935.4,286047001.9,N
1531251955.2,286047002.0,N
1531251975.1,286047002.6,N
1531251976.0,286047002.6,N
1531251995.8,286047000.6,N
1531252015.6,286047000.6,N
1531252035.5,286047000.5,N
1531252055.3,286047002.6,N
1531252075.1,286047000.1,N
1531252095.9,286047001.7,N
1531252115.7,286047002.8,N
1531252135.6,286047002.4,N
1531252155.4,286047003.1,Y
1531252175.2,286047002.0,P
1531252195.1,286047003.5,P
1531252196.0,286047003.5,P
1531252215.8,286047005.2,Y
1531252235.7,286047003.8,P
1531252255.5,286047003.7,P
1531252275.3,286047005.9,P
1531252295.2,286047003.0,N
1531252315.0,286047005.4,Y
1531252315.9,286047005.4,P
1531252335.7,286047002.6,P
1531252355.6,286047002.4,N
1531252375.4,286047002.5,N
1531252395.3,286047002.7,N
1531252415.1,286046999.8,N
1531252435.8,286047000.1,N
1531252455.7,286047002.6,N
1531252475.5,286046999.8,N
1531252495.4,286047000.2,N
1531252515.2,286047000.0,N
1531252535.0,286047000.6,N
1531252535.9,286047000.6,N
1531252555.8,286047000.7,N
1531252575.6,286047000.2,N
1531252595.4,286047000.4,N
1531252615.3,286046998.7,N
1531252635.1,286046999.4,N
1531252655.9,286046998.0,N
1531252675.7,286046995.0,N
1531252695.5,286046996.7,N
1531252715.4,286046996.2,N
1531252735.2,286046996.1,N
1531252755.0,286046996.2,N
1531252756.0,286046996.2,N
1531252775.8,286046997.4,N
1531252795.6,286046998.0,N
